| time (UTC) | temp F | wind direction | speed MPH | gust MPH | rain 1hr in | rain 24hr in | rain mn in | humidity % | barometer mb |
| 20260901223652 | 69 | 121 | 3.0 | 7.0 | 0.00 | 0.00 | 0.00 | 74 | 1017.9 |
| 20260901222653 | 69 | 121 | 1.0 | 8.0 | 0.00 | 0.00 | 0.00 | 74 | 1017.9 |
| 20260901221653 | 69 | 98 | 3.0 | 7.0 | 0.00 | 0.00 | 0.00 | 74 | 1017.8 |
| 20260901220653 | 70 | 211 | 2.0 | 10.0 | 0.00 | 0.00 | 0.00 | 73 | 1017.7 |
| 20260901215652 | 70 | 70 | 3.0 | 10.0 | 0.00 | 0.00 | 0.00 | 73 | 1017.6 |
| 20260901214653 | 70 | 107 | 3.0 | 9.0 | 0.00 | 0.00 | 0.00 | 73 | 1017.5 |
| 20260901214132 | 71 | 74 | 3.0 | 10.0 | 0.00 | 0.00 | 0.00 | 72 | 1017.3 |
| 20260901212652 | 71 | 175 | 3.0 | 10.0 | 0.00 | 0.00 | 0.00 | 71 | 1017.2 |
| 20260901211652 | 72 | 77 | 3.0 | 10.0 | 0.00 | 0.00 | 0.00 | 70 | 1017.2 |
| 20260901210653 | 74 | 208 | 4.0 | 10.0 | 0.00 | 0.00 | 0.00 | 67 | 1017.3 |
| 20260901205652 | 75 | 140 | 4.0 | 8.0 | 0.00 | 0.00 | 0.00 | 63 | 1017.0 |
| 20260901205127 | 76 | 82 | 1.0 | 6.0 | 0.00 | 0.00 | 0.00 | 57 | 1016.9 |
| 20260901203648 | 76 | 355 | 0.0 | 2.0 | 0.00 | 0.00 | 0.00 | 60 | 1016.7 |
| 20260901202646 | 75 | 288 | 0.0 | 1.0 | 0.00 | 0.00 | 0.00 | 58 | 1016.6 |
| 20260901201646 | 76 | 288 | 1.0 | 4.0 | 0.00 | 0.00 | 0.00 | 52 | 1016.6 |
| 20260901200647 | 77 | 119 | 2.0 | 6.0 | 0.00 | 0.00 | 0.00 | 52 | 1016.7 |
| 20260901195646 | 76 | 80 | 2.0 | 7.0 | 0.00 | 0.00 | 0.00 | 55 | 1016.8 |
| 20260901194646 | 76 | 64 | 3.0 | 8.0 | 0.00 | 0.00 | 0.00 | 54 | 1016.7 |
| 20260901193646 | 76 | 71 | 3.0 | 8.0 | 0.00 | 0.00 | 0.00 | 56 | 1016.8 |
| 20260901192645 | 76 | 82 | 4.0 | 9.0 | 0.00 | 0.00 | 0.00 | 55 | 1016.9 |
| 20260901191644 | 77 | 72 | 3.0 | 9.0 | 0.00 | 0.00 | 0.00 | 55 | 1017.0 |
| 20260901190644 | 77 | 22 | 1.0 | 4.0 | 0.00 | 0.00 | 0.00 | 57 | 1017.1 |
| 20260901185642 | 76 | 116 | 3.0 | 9.0 | 0.00 | 0.00 | 0.00 | 53 | 1017.2 |
| 20260901184643 | 76 | 32 | 4.0 | 9.0 | 0.00 | 0.00 | 0.00 | 57 | 1017.2 |
| 20260901183640 | 76 | 56 | 2.0 | 10.0 | 0.00 | 0.00 | 0.00 | 54 | 1017.0 |
| 20260901182639 | 75 | 259 | 1.0 | 6.0 | 0.00 | 0.00 | 0.00 | 57 | 1017.1 |
| 20260901181637 | 75 | 24 | 4.0 | 9.0 | 0.00 | 0.00 | 0.00 | 58 | 1017.0 |
| 20260901180636 | 74 | 26 | 4.0 | 9.0 | 0.00 | 0.00 | 0.00 | 59 | 1017.0 |
| 20260901175633 | 74 | 83 | 3.0 | 9.0 | 0.00 | 0.00 | 0.00 | 60 | 1017.0 |
| 20260901175114 | 74 | 41 | 4.0 | 10.0 | 0.00 | 0.00 | 0.00 | 63 | 1017.0 |
| 20260901173632 | 74 | 54 | 3.0 | 9.0 | 0.00 | 0.00 | 0.00 | 63 | 1017.1 |
| 20260901172632 | 73 | 80 | 4.0 | 9.0 | 0.00 | 0.00 | 0.00 | 66 | 1017.1 |
| 20260901171634 | 73 | 40 | 5.0 | 10.0 | 0.00 | 0.00 | 0.00 | 64 | 1017.2 |
| 20260901170632 | 73 | 76 | 2.0 | 9.0 | 0.00 | 0.00 | 0.00 | 67 | 1017.2 |
| 20260901165632 | 72 | 64 | 3.0 | 8.0 | 0.00 | 0.00 | 0.00 | 69 | 1017.3 |
| 20260901165114 | 71 | 96 | 3.0 | 8.0 | 0.00 | 0.00 | 0.00 | 70 | 1017.3 |
| 20260901163631 | 71 | 78 | 3.0 | 9.0 | 0.00 | 0.00 | 0.00 | 67 | 1017.5 |
| 20260901163119 | 71 | 57 | 4.0 | 8.0 | 0.00 | 0.00 | 0.00 | 69 | 1017.3 |
| 20260901161632 | 71 | 74 | 3.0 | 8.0 | 0.00 | 0.00 | 0.00 | 69 | 1017.4 |
| 20260901161555 | 71 | 121 | 4.0 | 9.0 | 0.00 | 0.00 | 0.00 | 69 | 1017.5 |
| 20260901155632 | 70 | 74 | 2.0 | 9.0 | 0.00 | 0.00 | 0.00 | 69 | 1017.5 |
| 20260901154632 | 69 | 92 | 3.0 | 9.0 | 0.00 | 0.00 | 0.00 | 70 | 1017.5 |
| 20260901154112 | 69 | 52 | 2.0 | 8.0 | 0.00 | 0.00 | 0.00 | 70 | 1017.7 |
| 20260901152628 | 68 | 68 | 3.0 | 9.0 | 0.00 | 0.00 | 0.00 | 70 | 1017.6 |
| 20260901151628 | 68 | 29 | 3.0 | 7.0 | 0.00 | 0.00 | 0.00 | 71 | 1017.5 |
| 20260901150626 | 68 | 58 | 3.0 | 8.0 | 0.00 | 0.00 | 0.00 | 71 | 1017.6 |
| 20260901145627 | 67 | 35 | 3.0 | 8.0 | 0.00 | 0.00 | 0.00 | 73 | 1017.6 |
| 20260901144626 | 67 | 34 | 3.0 | 11.0 | 0.00 | 0.00 | 0.00 | 71 | 1017.7 |
| 20260901144109 | 66 | 25 | 5.0 | 11.0 | 0.00 | 0.00 | 0.00 | 71 | 1017.8 |
| 20260901142626 | 65 | 77 | 5.0 | 13.0 | 0.00 | 0.00 | 0.00 | 72 | 1017.8 |
| 20260901142108 | 65 | 90 | 4.0 | 10.0 | 0.00 | 0.00 | 0.00 | 71 | 1017.8 |
| 20260901140624 | 66 | 36 | 4.0 | 10.0 | 0.00 | 0.00 | 0.00 | 73 | 1017.8 |
| 20260901135618 | 65 | 48 | 4.0 | 8.0 | 0.00 | 0.00 | 0.00 | 73 | 1017.9 |
| 20260901134618 | 65 | 86 | 3.0 | 7.0 | 0.00 | 0.00 | 0.00 | 74 | 1018.0 |
| 20260901133618 | 64 | 117 | 1.0 | 8.0 | 0.00 | 0.00 | 0.00 | 74 | 1018.1 |
| 20260901132616 | 63 | 68 | 3.0 | 7.0 | 0.00 | 0.00 | 0.00 | 74 | 1018.1 |
| 20260901131617 | 62 | 177 | 3.0 | 10.0 | 0.00 | 0.00 | 0.00 | 74 | 1018.0 |
| 20260901130616 | 61 | 51 | 4.0 | 10.0 | 0.00 | 0.00 | 0.00 | 73 | 1018.1 |
| 20260901125616 | 60 | 44 | 3.0 | 8.0 | 0.00 | 0.00 | 0.00 | 69 | 1018.0 |
| 20260901124617 | 60 | 26 | 2.0 | 7.0 | 0.00 | 0.00 | 0.00 | 65 | 1018.0 |
| 20260901123616 | 59 | 5 | 2.0 | 5.0 | 0.00 | 0.00 | 0.00 | 61 | 1017.9 |
| 20260901122611 | 58 | 46 | 2.0 | 5.0 | 0.00 | 0.00 | 0.00 | 59 | 1017.8 |
| 20260901121610 | 58 | 26 | 1.0 | 4.0 | 0.00 | 0.00 | 0.00 | 56 | 1017.8 |
| 20260901121518 | 57 | 59 | 1.0 | 5.0 | 0.00 | 0.00 | 0.00 | 56 | 1017.7 |
| 20260901115608 | 56 | 39 | 1.0 | 5.0 | 0.00 | 0.00 | 0.00 | 55 | 1017.8 |
| 20260901114608 | 56 | 39 | 1.0 | 4.0 | 0.00 | 0.00 | 0.00 | 55 | 1017.5 |
| 20260901113608 | 55 | 39 | 0.0 | 3.0 | 0.00 | 0.00 | 0.00 | 55 | 1017.7 |
| 20260901112608 | 55 | 21 | 1.0 | 3.0 | 0.00 | 0.00 | 0.00 | 55 | 1017.7 |
| 20260901111609 | 53 | 36 | 0.0 | 4.0 | 0.00 | 0.00 | 0.00 | 56 | 1017.6 |
| 20260901110607 | 52 | 67 | 2.0 | 5.0 | 0.00 | 0.00 | 0.00 | 57 | 1017.4 |
| 20260901110039 | 49 | 55 | 1.0 | 4.0 | 0.00 | 0.00 | 0.00 | 59 | 1017.3 |
| 20260901104601 | 47 | 84 | 0.0 | 0.0 | 0.00 | 0.00 | 0.00 | 60 | 1017.3 |
| 20260901103600 | 47 | 9 | 0.0 | 0.0 | 0.00 | 0.00 | 0.00 | 60 | 1017.3 |
| 20260901102600 | 46 | 9 | 0.0 | 0.0 | 0.00 | 0.00 | 0.00 | 61 | 1017.2 |
| 20260901101601 | 46 | 9 | 0.0 | 0.0 | 0.00 | 0.00 | 0.00 | 61 | 1017.1 |
| 20260901100601 | 47 | 9 | 0.0 | 0.0 | 0.00 | 0.00 | 0.00 | 61 | 1017.1 |
| 20260901095600 | 47 | 9 | 0.0 | 0.0 | 0.00 | 0.00 | 0.00 | 61 | 1017.0 |
| 20260901094601 | 47 | 9 | 0.0 | 0.0 | 0.00 | 0.00 | 0.00 | 60 | 1017.0 |
| 20260901094035 | 47 | 281 | 0.0 | 0.0 | 0.00 | 0.00 | 0.00 | 60 | 1017.0 |
| 20260901092601 | 47 | 281 | 0.0 | 0.0 | 0.00 | 0.00 | 0.00 | 60 | 1016.9 |
| 20260901092528 | 47 | 281 | 0.0 | 0.0 | 0.00 | 0.00 | 0.00 | 61 | 1016.9 |
| 20260901090601 | 47 | 281 | 0.0 | 0.0 | 0.00 | 0.00 | 0.00 | 61 | 1016.9 |
| 20260901085601 | 47 | 281 | 0.0 | 0.0 | 0.00 | 0.00 | 0.00 | 61 | 1017.0 |
| 20260901084601 | 47 | 281 | 0.0 | 0.0 | 0.00 | 0.00 | 0.00 | 61 | 1017.0 |
| 20260901083601 | 47 | 281 | 0.0 | 0.0 | 0.00 | 0.00 | 0.00 | 61 | 1017.0 |
| 20260901082601 | 47 | 281 | 0.0 | 0.0 | 0.00 | 0.00 | 0.00 | 61 | 1017.0 |
| 20260901081601 | 47 | 281 | 0.0 | 0.0 | 0.00 | 0.00 | 0.00 | 61 | 1017.0 |
| 20260901080601 | 48 | 281 | 0.0 | 0.0 | 0.00 | 0.00 | 0.00 | 61 | 1017.0 |
| 20260901075601 | 48 | 281 | 0.0 | 0.0 | 0.00 | 0.00 | 0.00 | 61 | 1016.9 |
| 20260901075038 | 48 | 281 | 0.0 | 0.0 | 0.00 | 0.00 | 0.00 | 61 | 1017.0 |
| 20260901073602 | 48 | 281 | 0.0 | 0.0 | 0.00 | 0.00 | 0.00 | 61 | 1017.0 |
| 20260901073044 | 49 | 281 | 0.0 | 0.0 | 0.00 | 0.00 | 0.00 | 61 | 1017.0 |
| 20260901072039 | 49 | 281 | 0.0 | 0.0 | 0.00 | 0.00 | 0.00 | 61 | 1017.0 |
| 20260901070601 | 49 | 281 | 0.0 | 0.0 | 0.00 | 0.00 | 0.00 | 61 | 1017.2 |
| 20260901065600 | 49 | 281 | 0.0 | 0.0 | 0.00 | 0.00 | 0.00 | 61 | 1017.1 |
| 20260901064601 | 49 | 281 | 0.0 | 0.0 | 0.00 | 0.00 | 0.00 | 62 | 1017.1 |
| 20260901063601 | 49 | 281 | 0.0 | 0.0 | 0.00 | 0.00 | 0.00 | 61 | 1017.2 |
| 20260901062600 | 49 | 281 | 0.0 | 0.0 | 0.00 | 0.00 | 0.00 | 62 | 1017.2 |
| 20260901061601 | 49 | 281 | 0.0 | 0.0 | 0.00 | 0.01 | 0.00 | 62 | 1017.2 |
| 20260901061041 | 49 | 281 | 0.0 | 0.0 | 0.00 | 0.01 | 0.00 | 63 | 1017.2 |
| 20260901055601 | 49 | 281 | 0.0 | 0.0 | 0.00 | 0.01 | 0.00 | 63 | 1017.3 |
| 20260901054602 | 50 | 281 | 0.0 | 0.0 | 0.00 | 0.01 | 0.00 | 62 | 1017.4 |
| 20260901053601 | 50 | 281 | 0.0 | 0.0 | 0.00 | 0.01 | 0.00 | 63 | 1017.2 |
| 20260901053037 | 50 | 281 | 0.0 | 0.0 | 0.00 | 0.01 | 0.00 | 63 | 1017.2 |
| 20260901051602 | 50 | 281 | 0.0 | 0.0 | 0.00 | 0.01 | 0.00 | 63 | 1017.2 |
| 20260901050601 | 50 | 281 | 0.0 | 0.0 | 0.00 | 0.01 | 0.00 | 63 | 1017.2 |
| 20260901045600 | 51 | 281 | 0.0 | 0.0 | 0.00 | 0.01 | 0.00 | 63 | 1017.2 |
| 20260901044601 | 51 | 281 | 0.0 | 0.0 | 0.00 | 0.01 | 0.00 | 63 | 1017.3 |
| 20260901043601 | 51 | 281 | 0.0 | 0.0 | 0.00 | 0.01 | 0.00 | 63 | 1017.2 |
| 20260901043048 | 51 | 281 | 0.0 | 0.0 | 0.00 | 0.01 | 0.00 | 64 | 1017.2 |
| 20260901041602 | 52 | 281 | 0.0 | 0.0 | 0.00 | 0.01 | 0.00 | 64 | 1017.2 |
| 20260901040601 | 52 | 281 | 0.0 | 0.0 | 0.00 | 0.01 | 0.00 | 64 | 1017.1 |
| 20260901035601 | 52 | 281 | 0.0 | 0.0 | 0.00 | 0.01 | 0.01 | 65 | 1017.0 |
| 20260901035036 | 52 | 281 | 0.0 | 0.0 | 0.00 | 0.01 | 0.01 | 66 | 1017.2 |
| 20260901033602 | 52 | 281 | 0.0 | 0.0 | 0.00 | 0.01 | 0.01 | 67 | 1017.2 |
| 20260901032601 | 52 | 281 | 0.0 | 0.0 | 0.00 | 0.01 | 0.01 | 67 | 1017.1 |
| 20260901032043 | 52 | 281 | 0.0 | 0.0 | 0.00 | 0.01 | 0.01 | 68 | 1017.2 |
| 20260901030601 | 52 | 281 | 0.0 | 0.0 | 0.00 | 0.01 | 0.01 | 69 | 1017.4 |
| 20260901025601 | 52 | 281 | 0.0 | 0.0 | 0.00 | 0.01 | 0.01 | 71 | 1017.4 |
| 20260901024602 | 53 | 281 | 0.0 | 0.0 | 0.00 | 0.01 | 0.01 | 72 | 1017.5 |
| 20260901023601 | 53 | 281 | 0.0 | 0.0 | 0.00 | 0.01 | 0.01 | 72 | 1017.5 |
| 20260901022601 | 54 | 281 | 0.0 | 0.0 | 0.00 | 0.01 | 0.01 | 73 | 1017.3 |
| 20260901021601 | 55 | 281 | 0.0 | 0.0 | 0.00 | 0.02 | 0.01 | 74 | 1017.2 |
| 20260901020601 | 56 | 281 | 0.0 | 0.0 | 0.00 | 0.02 | 0.01 | 74 | 1017.2 |
| 20260901015601 | 56 | 270 | 0.0 | 0.0 | 0.00 | 0.02 | 0.01 | 74 | 1017.1 |
| 20260901015042 | 56 | 281 | 0.0 | 0.0 | 0.00 | 0.03 | 0.01 | 75 | 1017.1 |
| 20260901013601 | 57 | 259 | 0.0 | 0.0 | 0.00 | 0.03 | 0.01 | 75 | 1017.1 |
| 20260901012602 | 58 | 276 | 0.0 | 0.0 | 0.00 | 0.03 | 0.01 | 76 | 1017.1 |
| 20260901011600 | 58 | 240 | 0.0 | 0.0 | 0.00 | 0.04 | 0.01 | 76 | 1017.1 |
| 20260901010601 | 59 | 188 | 0.0 | 0.0 | 0.00 | 0.07 | 0.01 | 76 | 1017.0 |
| 20260901005601 | 59 | 283 | 0.0 | 1.0 | 0.00 | 0.11 | 0.01 | 76 | 1017.0 |
| 20260901004601 | 60 | 237 | 0.0 | 1.0 | 0.00 | 0.20 | 0.01 | 76 | 1017.1 |
| 20260901003601 | 60 | 246 | 0.0 | 1.0 | 0.00 | 0.20 | 0.01 | 75 | 1017.0 |
| 20260901002601 | 61 | 204 | 1.0 | 5.0 | 0.00 | 0.20 | 0.01 | 75 | 1016.8 |
| 20260901001600 | 62 | 192 | 1.0 | 5.0 | 0.00 | 0.20 | 0.01 | 74 | 1016.8 |
| 20260901000601 | 62 | 178 | 1.0 | 4.0 | 0.00 | 0.20 | 0.01 | 73 | 1016.6 |
| 20260831235601 | 62 | 239 | 1.0 | 4.0 | 0.00 | 0.20 | 0.01 | 73 | 1016.5 |
| 20260831234601 | 62 | 177 | 1.0 | 3.0 | 0.00 | 0.20 | 0.01 | 73 | 1016.7 |
| 20260831233602 | 62 | 217 | 0.0 | 3.0 | 0.00 | 0.20 | 0.01 | 73 | 1016.5 |
| 20260831232600 | 63 | 167 | 0.0 | 2.0 | 0.00 | 0.20 | 0.01 | 73 | 1016.5 |
| 20260831231601 | 65 | 187 | 0.0 | 0.0 | 0.00 | 0.20 | 0.01 | 72 | 1016.6 |
| 20260831231043 | 66 | 187 | 0.0 | 0.0 | 0.00 | 0.20 | 0.01 | 70 | 1016.5 |
| 20260831230514 | 67 | 187 | 0.0 | 0.0 | 0.00 | 0.20 | 0.01 | 69 | 1016.6 |
| 20260831224601 | 69 | 187 | 0.0 | 0.0 | 0.00 | 0.20 | 0.01 | 68 | 1016.6 |